User: anonymous   Login
Location: Ottawa
(45.4170°N, 75.7000°W)
Time: 12:07:23
(UTC-04:00)
Language:

Aureole 3 Rocket - Orbit

View from above orbital plane
View from above orbital plane
View from above satellite
View from above satellite

Ground track
Ground track

The orbit data is extracted from the following two-line orbital elements,

1 12849U 81094B   14296.81459924  .00002167  00000-0  19987-3 0   231
2 12849 082.4951 188.3534 0911688 133.5819 234.4787 13.48374931611455
Epoch (UTC): 23 October 2014 19:33:01
Eccentricity: 0.0911688
inclination: 82.4951°
perigee height: 398 km
apogee height: 1758 km
right ascension of ascending node: 188.3534°
argument of perigee: 133.5819°
revolutions per day: 13.48374931
mean anomaly at epoch: 234.4787°
orbit number at epoch: 61145

The dashed part of the orbit path shows where the satellite is in the earth's shadow,  

DLR